St. Stephen, New Brunswick

11:46 AM ADT on May 26, 2018 (GMT -0300)
St. Stephen

Weather History for CWSS - July, 2013

Change the Weather History Date:

Thursday, July 4, 2013

  Actual Average Record
Temperature  
Mean Temperature 74 °F -  
Max Temperature 89 °F - - ()
Min Temperature 59 °F - - ()
Cooling Degree Days 9    
Growing Degree Days 24 (Base 50)    
Moisture  
Dew Point 64 °F    
Average Humidity 69    
Maximum Humidity 96    
Minimum Humidity 31    
Precipitation  
Precipitation 0.00 in - - ()
Sea Level Pressure  
Sea Level Pressure 30.07 in    
Wind  
Wind Speed 3 mph ()    
Max Wind Speed 9 mph    
Max Gust Speed -    
T = Trace of Precipitation, MM = Missing Value Source: Averaged Metar Reports

Daily Weather History Graph

Daily Weather History Graph

Search for Another Location

Airport or City:

Astronomy

Jul. 04, 2013 Rise Set
Actual Time 5:47 AM ADT 9:19 PM ADT
Civil Twilight 5:10 AM ADT 9:56 PM ADT
Nautical Twilight 4:20 AM ADT 10:45 PM ADT
Astronomical Twilight 3:16 AM ADT 11:49 PM ADT
Moon 3:05 AM ADT (7/4) 6:17 PM ADT (7/4)
Length of Visible Light 16h 46m
Length of Day
15h 32m
Waning Crescent, 12% of the Moon is Illuminated
Jul 4
Waning Crescent
Jul 8
New
Jul 16
First Quarter
Jul 22
Full
Jul 29
Last Quarter

Hourly Weather History & Observations

Time (ADT) Temp. Heat Index Dew Point Humidity Pressure Visibility Wind Dir Wind Speed Gust Speed Precip Events Conditions
12:00 AM 68 °F - 65 °F 88% 30.09 in - SSW 2.3 mph - -  
12:00 AM 68.0 °F - 65.3 °F 91% 30.09 in - SSW 2.3 mph - N/A   Unknown
1:00 AM 65.3 °F - 63.3 °F 93% 30.09 in - Calm Calm - N/A   Unknown
2:00 AM 64.0 °F - 62.4 °F 94% 30.08 in - Calm Calm - N/A   Unknown
3:00 AM 63 °F - 61 °F 92% 30.08 in - Calm Calm - -  
3:00 AM 62.6 °F - 61.2 °F 95% 30.08 in - Calm Calm - N/A   Unknown
4:00 AM 61.3 °F - 60.1 °F 96% 30.08 in - SE 1.2 mph - N/A   Unknown
5:00 AM 60.4 °F - 59.2 °F 96% 30.08 in - Calm Calm - N/A   Unknown
6:00 AM 61 °F - 60 °F 93% 30.09 in - WSW 1.2 mph - -  
6:00 AM 60.6 °F - 59.5 °F 96% 30.09 in - WSW 1.2 mph - N/A   Unknown
7:00 AM 67.1 °F - 66.0 °F 96% 30.09 in - West 2.3 mph - N/A   Unknown
8:00 AM 71.8 °F - 68.4 °F 89% 30.11 in - WSW 4.6 mph - N/A   Unknown
9:00 AM 77 °F - 67 °F 65% 30.12 in - WNW 4.6 mph - -  
9:00 AM 76.6 °F - 67.3 °F 73% 30.12 in - WNW 4.6 mph - N/A   Unknown
10:00 AM 77.7 °F - 66.0 °F 67% 30.11 in - West 6.9 mph - N/A   Unknown
11:00 AM 80.1 °F 82.1 °F 66.0 °F 62% 30.10 in - West 6.9 mph - N/A   Unknown
12:00 PM 82 °F - 65 °F 48% 30.09 in - West 5.8 mph - -  
12:00 PM 82.0 °F 83.9 °F 65.5 °F 57% 30.09 in - West 5.8 mph - N/A   Unknown
1:00 PM 84.6 °F 86.6 °F 65.7 °F 53% 30.08 in - West 5.8 mph - N/A   Unknown
2:00 PM 86.2 °F 87.3 °F 64.0 °F 47% 30.07 in - West 6.9 mph - N/A   Unknown
3:00 PM 88 °F - 62 °F 32% 30.06 in - WNW 5.8 mph - -  
3:00 PM 87.6 °F 88.2 °F 62.4 °F 43% 30.06 in - WNW 5.8 mph - N/A   Unknown
4:00 PM 88.2 °F 89.0 °F 63.0 °F 43% 30.04 in - WSW 9.2 mph - N/A   Unknown
5:00 PM 88.3 °F 89.9 °F 64.2 °F 45% 30.02 in - West 8.1 mph - N/A   Unknown
6:00 PM 89 °F - 62 °F 31% 30.02 in - West 5.8 mph - -  
6:00 PM 89.1 °F 89.6 °F 62.2 °F 41% 30.02 in - West 5.8 mph - N/A   Unknown
7:00 PM 88.0 °F 88.7 °F 62.8 °F 43% 30.01 in - West 6.9 mph - N/A   Unknown
8:00 PM 86.0 °F 87.3 °F 64.2 °F 48% 30.02 in - WSW 5.8 mph - N/A   Unknown
9:00 PM 78 °F - 69 °F 66% 30.02 in - Calm Calm - -  
9:00 PM 78.1 °F - 68.5 °F 72% 30.02 in - Calm Calm - N/A   Unknown
10:00 PM 74.5 °F - 68.7 °F 82% 30.02 in - Calm Calm - N/A   Unknown
11:00 PM 73.8 °F - 68.9 °F 85% 30.02 in - SSW 1.2 mph - N/A   Unknown